Weather Roundup
Issued by NWS Chicago, IL

Home | Current Version | Previous Version | Graphics & Text | Print | Product List | Glossary On
Versions: 1 2 3 4 5 6 7 8 9 10 11 12 13 14 15 16 17 18 19 20 21 22 23 24 25 26 27 28 29 30 31 32 33 34 35 36 37 38 39 40 41 42 43 44 45 46 47 48 49 50
374
NZUS59 KLOT 031808
HRRLOT

CHICAGO AREA WEATHER ROUNDUP
NATIONAL WEATHER SERVICE CHICAGO/ROMEOVILLE IL
1200 PM CST SAT DEC 03 2016

NOTE: "FAIR" INDICATES FEW OR NO CLOUDS BELOW 12,000 FEET WITH NO
SIGNIFICANT WEATHER AND/OR OBSTRUCTIONS TO VISIBILITY.

* THESE STATIONS ARE NOT UNDER NWS QUALITY CONTROL. THEY ALSO MAY NOT
  REPORT WEATHER SUCH AS PRECIPITATION OR FOG.

ILZ005-006-012>014-019>023-031900-
NORTHEAST ILLINOIS

CITY           SKY/WX    TMP DP  RH WIND       PRES   REMARKS
OHARE          CLOUDY    33  23  66 SW3       30.33S
6HR MIN TEMP:  32; 6HR MAX TEMP:  33;

MIDWAY         NOT AVBL
AURORA         CLOUDY    34  25  69 W7        30.37R WCI  28
6HR MIN TEMP:  32; 6HR MAX TEMP:  34;

LANSING*       CLOUDY    34  26  74 SW3       30.36R
JOLIET*        CLOUDY    35  26  71 CALM      30.37R
WAUKEGAN       CLOUDY    33  23  66 W6        30.32S WCI  28
6HR MIN TEMP:  31; 6HR MAX TEMP:  33;

DUPAGE AIRPORT CLOUDY    33  23  66 W5        30.34S WCI  29
6HR MIN TEMP:  31; 6HR MAX TEMP:  33;

WHEELING       CLOUDY    33  23  66 W5        30.34F WCI  29
6HR MIN TEMP:  31; 6HR MAX TEMP:  33;

KANKAKEE*      CLOUDY    34  27  74 W7        30.37F WCI  28
MORRIS*        CLOUDY    33  26  73 W6        30.36S WCI  28
LEWIS AIRPORT* CLOUDY    33  28  81 W8        30.37R WCI  26
NORTHERLY ISL    N/A     34  22  61 W3          N/A
$$

WIZ051-052-058>065-066-070>072-031900-
SOUTHEAST WISCONSIN

CITY           SKY/WX    TMP DP  RH WIND       PRES   REMARKS
MILWAUKEE      CLOUDY    33  22  63 SW3       30.32R
6HR MIN TEMP:  32; 6HR MAX TEMP:  33;

KENOSHA*       CLOUDY    32  23  69 W5        30.33R WCI  27
RACINE*        CLOUDY    32  22  66 W6        30.34R WCI  26
BURLINGTON     CLOUDY    31  22  69 CALM      30.32S
WAUKESHA       CLOUDY    28  21  74 NW7       30.31R WCI  21
WEST BEND      CLOUDY    32  23  69 NW3       30.29R
$$

INZ001>003-010>013-019-020-031900-
NORTHWEST INDIANA

CITY           SKY/WX    TMP DP  RH WIND       PRES   REMARKS
GARY*          CLOUDY    36  23  60 W8        30.37R
MICHIGAN CITY* NOT AVBL
RENSSELAER*    NOT AVBL
VALPARAISO     CLOUDY    37  24  59 SW7       30.34R
$$

LMZ740>746-031900-
SOUTHERN LAKE MICHIGAN

STATION/POSITION TIME  SKY/WX   TEMP WIND        PRES    VSBY
                                AIR  DIR/SP/G
                 (UTC)          (F)  (DEG/KT/KT) (MB)    (MI)
HARRISON CRIB    1740            34  290/  6/  9   N/A
BURNHAM HARBOR   1800            34  260/  5/  8   N/A
CALUMET HARBOR   1742            34  230/  3/  5 1027.1R
BURNS HARBOR     1740            35  260/  8/ 11 1028.1R
MICHIGAN CITY    1740            35  250/  9/ 10   N/A
$$

ABBREVIATIONS USED IN REMARKS
   TC - TEMPERATURE IN CELSIUS
  WCI - WIND CHILL INDEX
   HX - HEAT INDEX
  VSB - VISIBILITY
$$




USA.gov is the U.S. government's official web portal to all federal, state and local government web resources and services.